Location: Condor
(52.3263°N, 114.5541°W)
Time: 22:52:28
(UTC+00:00)

Oscar 19 - Pass Details

Date: 13 December 2023
Orbit: 771 x 789 km, 98.9° (Epoch: 04 March)

Event Time Altitude Azimuth Distance (km) Brightness Sun altitude
Rises 14:18:03 0° 7° (N) 3,280 13.7 -11.5°
Reaches altitude 10° 14:20:55 10° 352° (N) 2,351 12.8 -11.1°
Maximum altitude 14:24:35 20° 306° (NW) 1,754 11.9 -10.6°
Drops below altitude 10° 14:28:15 10° 261° (W) 2,349 12.6 -10.1°
Sets 14:31:07 0° 245° (WSW) 3,276 13.5 -9.7°
